Regional Weather Roundup
Issued by NWS

Home | Current Version | Previous Version | Graphics & Text | Print | Product List | Glossary On
Versions: 1 2 3 4 5 6 7 8 9 10 11 12 13 14 15 16 17 18 19 20 21 22 23 24 25 26 27 28 29 30 31 32 33 34 35 36 37 38 39 40 41 42 43 44 45 46 47 48 49 50
948
ASUS43 KLMK 300002
RWRKY
KENTUCKY REGIONAL WEATHER ROUNDUP
NATIONAL WEATHER SERVICE LOUISVILLE KY
800 PM EDT MON AUG 29 2016

NOTE "FAIR" INDICATES FEW OR NO CLOUDS BELOW 12,000 FEET
WITH NO SIGNIFICANT WEATHER AND/OR OBSTRUCTIONS TO VISIBILITY.

KYZ001>023-026-027-061>063-070>075-300100-
WESTERN AND SOUTH CENTRAL KENTUCKY

CITY           SKY/WX    TMP DP  RH WIND       PRES   REMARKS
PADUCAH        CLEAR     86  74  67 NE7       30.07R HX  94
HENDERSON      CLEAR     86  70  58 NE5       30.08S HX  90
OWENSBORO      CLEAR     88  73  60 NE7       30.10S HX  95
HOPKINSVILLE   CLEAR     85  76  74 NE6       30.07S HX  94
BOWLING GREEN  CLEAR     83  72  69 NE6       30.09S
GLASGOW        CLEAR     79  70  74 NE3       30.11R
$$

KYZ024-025-028>034-038-045-046-053-300100-
NORTH CENTRAL KENTUCKY

CITY           SKY/WX    TMP DP  RH WIND       PRES   REMARKS
LOUISVILLE/SDF PTCLDY    88  67  49 E10       30.11S HX  91
LOUISVILLE/LOU CLEAR     87  68  52 NE8       30.12S HX  90
FORT KNOX      CLEAR     82  72  72 N5        30.10F
$$

KYZ035>037-039>044-047>052-055>060-089>105-300100-
NORTHEAST KENTUCKY

CITY           SKY/WX    TMP DP  RH WIND       PRES   REMARKS
LEXINGTON      CLEAR     83  71  67 NE6       30.15S
COVINGTON      PTCLDY    83  71  67 E7        30.16S
FRANKFORT      CLEAR     80  73  79 CALM      30.13F
$$

KYZ054-064>069-076>088-106>120-300100-
SOUTHEAST KENTUCKY

CITY           SKY/WX    TMP DP  RH WIND       PRES   REMARKS
JACKSON        PTCLDY    73  69  87 CALM      30.16F
LONDON         PTCLDY    77  71  82 N5        30.14S
SOMERSET       CLEAR     77  64  65 CALM      30.14S
MIDDLESBORO    MOCLDY    77  69  76 CALM      30.15R
MONTICELLO     PTCLDY   N/A N/A N/A W8        30.14S
$$





USA.gov is the U.S. government's official web portal to all federal, state and local government web resources and services.